• En España
  • Lista de países
  • Para 7 días
  • Temperatura del agua
  • Mapa Satelital
  • El tiempo en el mapa
  • Informadores
  • user-avatar
    Iniciar sesión

    Tiempo cada hora Kipungo

    Hoy, 11 Diciembre, Lunes

    Tiempo Temperatura Precipitaciones Viento Presión Humedad
    00:00 +21°C° 0,1 mm 1 mps 652 mmHg 84%
    01:00 +21°C° 0 mm 1 mps 652 mmHg 89%
    02:00 +21°C° 0,2 mm 1 mps 652 mmHg 90%
    03:00 +20°C° 0,2 mm 1 mps 652 mmHg 91%
    04:00 +20°C° 0,2 mm 1 mps 652 mmHg 91%
    05:00 +21°C° 0 mm 1 mps 652 mmHg 88%
    06:00 +22°C° 0 mm 1 mps 653 mmHg 85%
    07:00 +22°C° 0 mm 1 mps 653 mmHg 82%
    08:00 +25°C° 0,3 mm 1 mps 654 mmHg 70%
    09:00 +28°C° 0,3 mm 1 mps 654 mmHg 59%
    10:00 +31°C° 0,3 mm 1 mps 655 mmHg 48%
    11:00 +31°C° 0,2 mm 1 mps 654 mmHg 44%
    12:00 +32°C° 0,2 mm 1 mps 654 mmHg 40%
    13:00 +33°C° 0,2 mm 1 mps 654 mmHg 36%
    14:00 +32°C° 0,2 mm 2 mps 653 mmHg 39%
    15:00 +31°C° 0,2 mm 2 mps 652 mmHg 42%
    16:00 +30°C° 0,2 mm 2 mps 652 mmHg 46%
    17:00 +28°C° 0,1 mm 2 mps 652 mmHg 51%
    18:00 +27°C° 0,1 mm 3 mps 652 mmHg 57%
    19:00 +25°C° 0,1 mm 3 mps 651 mmHg 63%
    20:00 +24°C° 0 mm 3 mps 652 mmHg 69%
    21:00 +22°C° 0 mm 3 mps 652 mmHg 74%
    22:00 +21°C° 0 mm 3 mps 652 mmHg 80%
    23:00 +21°C° 0 mm 3 mps 652 mmHg 82%

    Mañana, 12 Diciembre, Martes

    Tiempo Temperatura Precipitaciones Viento Presión Humedad
    00:00 +21°C° 0 mm 2 mps 652 mmHg 85%
    01:00 +20°C° 0 mm 2 mps 652 mmHg 87%
    02:00 +20°C° 0 mm 2 mps 652 mmHg 88%
    03:00 +21°C° 0 mm 1 mps 651 mmHg 89%
    04:00 +20°C° 0 mm 1 mps 651 mmHg 91%
    05:00 +21°C° 0 mm 1 mps 652 mmHg 87%
    06:00 +21°C° 0 mm 2 mps 652 mmHg 83%
    07:00 +21°C° 0 mm 2 mps 653 mmHg 79%
    08:00 +25°C° 0 mm 2 mps 653 mmHg 67%
    09:00 +28°C° 0 mm 2 mps 654 mmHg 55%
    10:00 +31°C° 0 mm 2 mps 654 mmHg 44%
    11:00 +32°C° 0,3 mm 2 mps 654 mmHg 42%
    12:00 +32°C° 0,3 mm 2 mps 653 mmHg 40%
    13:00 +34°C° 0,3 mm 2 mps 653 mmHg 38%
    14:00 +32°C° 0,2 mm 2 mps 652 mmHg 40%
    15:00 +31°C° 0,2 mm 3 mps 652 mmHg 43%
    16:00 +30°C° 0,2 mm 3 mps 651 mmHg 45%
    17:00 +28°C° 0 mm 4 mps 651 mmHg 53%
    18:00 +27°C° 0 mm 4 mps 652 mmHg 60%
    19:00 +25°C° 0 mm 4 mps 652 mmHg 68%
    20:00 +23°C° 0,1 mm 4 mps 652 mmHg 73%
    21:00 +22°C° 0,1 mm 3 mps 653 mmHg 78%
    22:00 +21°C° 0,1 mm 3 mps 653 mmHg 83%
    23:00 +21°C° 0,3 mm 3 mps 653 mmHg 84%

    Pasado mañana, 13 Diciembre, Miércoles

    Tiempo Temperatura Precipitaciones Viento Presión Humedad
    00:00 +20°C° 0,3 mm 3 mps 653 mmHg 85%
    01:00 +20°C° 0,3 mm 2 mps 652 mmHg 87%
    02:00 +20°C° 0 mm 2 mps 652 mmHg 87%
    03:00 +20°C° 0 mm 2 mps 652 mmHg 87%
    04:00 +19°C° 0 mm 2 mps 652 mmHg 87%
    05:00 +20°C° 0 mm 2 mps 653 mmHg 85%
    06:00 +20°C° 0 mm 2 mps 653 mmHg 82%
    07:00 +21°C° 0 mm 2 mps 654 mmHg 80%
    08:00 +23°C° 0 mm 2 mps 654 mmHg 71%
    09:00 +25°C° 0 mm 2 mps 654 mmHg 62%
    10:00 +27°C° 0 mm 2 mps 655 mmHg 54%
    11:00 +29°C° 0 mm 2 mps 655 mmHg 47%
    12:00 +31°C° 0 mm 2 mps 655 mmHg 40%
    13:00 +34°C° 0 mm 2 mps 655 mmHg 33%
    14:00 +33°C° 0,1 mm 3 mps 654 mmHg 34%
    15:00 +33°C° 0,1 mm 3 mps 653 mmHg 35%
    16:00 +31°C° 0,1 mm 3 mps 653 mmHg 37%
    17:00 +29°C° 0 mm 3 mps 653 mmHg 44%
    18:00 +27°C° 0 mm 3 mps 653 mmHg 52%
    19:00 +25°C° 0 mm 3 mps 653 mmHg 60%
    20:00 +24°C° 0 mm 3 mps 653 mmHg 65%
    21:00 +22°C° 0 mm 3 mps 653 mmHg 70%
    22:00 +21°C° 0 mm 2 mps 654 mmHg 75%
    23:00 +20°C° 0 mm 2 mps 653 mmHg 79%

    14 Diciembre, Jueves

    Tiempo Temperatura Precipitaciones Viento Presión Humedad
    00:00 +20°C° 0 mm 2 mps 653 mmHg 84%
    01:00 +20°C° 0 mm 1 mps 653 mmHg 89%
    02:00 +19°C° 0 mm 1 mps 653 mmHg 91%
    03:00 +19°C° 0 mm 1 mps 652 mmHg 92%
    04:00 +19°C° 0 mm 1 mps 652 mmHg 94%
    05:00 +20°C° 0 mm 1 mps 653 mmHg 87%
    06:00 +21°C° 0 mm 1 mps 654 mmHg 80%
    07:00 +20°C° 0 mm 0 mps 654 mmHg 73%
    08:00 +25°C° 0 mm 1 mps 655 mmHg 59%
    09:00 +28°C° 0 mm 1 mps 656 mmHg 46%
    10:00 +32°C° 0 mm 1 mps 657 mmHg 32%
    11:00 +33°C° 0 mm 1 mps 656 mmHg 29%
    12:00 +34°C° 0 mm 1 mps 656 mmHg 25%
    13:00 +35°C° 0 mm 1 mps 655 mmHg 22%
    14:00 +34°C° 0 mm 1 mps 654 mmHg 22%
    15:00 +35°C° 0 mm 2 mps 654 mmHg 23%
    16:00 +34°C° 0 mm 2 mps 653 mmHg 23%
    17:00 +31°C° 0 mm 2 mps 653 mmHg 30%
    18:00 +28°C° 0 mm 2 mps 652 mmHg 36%
    19:00 +26°C° 0 mm 2 mps 652 mmHg 43%
    20:00 +25°C° 0 mm 2 mps 653 mmHg 48%
    21:00 +24°C° 0 mm 2 mps 653 mmHg 53%
    22:00 +23°C° 0 mm 2 mps 653 mmHg 58%
    23:00 +21°C° 0 mm 2 mps 653 mmHg 62%

    15 Diciembre, Viernes

    Tiempo Temperatura Precipitaciones Viento Presión Humedad
    00:00 +21°C° 0 mm 2 mps 652 mmHg 66%
    01:00 +20°C° 0 mm 2 mps 652 mmHg 71%
    02:00 +20°C° 0 mm 1 mps 652 mmHg 73%
    03:00 +20°C° 0 mm 1 mps 651 mmHg 75%
    04:00 +19°C° 0 mm 1 mps 651 mmHg 77%
    05:00 +20°C° 0 mm 1 mps 652 mmHg 71%
    06:00 +22°C° 0 mm 1 mps 653 mmHg 66%
    07:00 +21°C° 0 mm 0 mps 654 mmHg 60%
    08:00 +26°C° 0 mm 1 mps 654 mmHg 48%
    09:00 +30°C° 0 mm 1 mps 655 mmHg 35%
    10:00 +33°C° 0 mm 1 mps 656 mmHg 23%
    11:00 +35°C° 0 mm 1 mps 656 mmHg 20%
    12:00 +37°C° 0 mm 1 mps 655 mmHg 17%
    13:00 +40°C° 0 mm 1 mps 655 mmHg 14%
    14:00 +39°C° 0 mm 1 mps 654 mmHg 15%
    15:00 +39°C° 0 mm 1 mps 653 mmHg 15%
    16:00 +37°C° 0 mm 1 mps 653 mmHg 15%
    17:00 +35°C° 0 mm 2 mps 652 mmHg 20%
    18:00 +31°C° 0 mm 2 mps 652 mmHg 25%
    19:00 +28°C° 0 mm 3 mps 652 mmHg 31%
    20:00 +26°C° 0 mm 2 mps 652 mmHg 35%
    21:00 +25°C° 0 mm 2 mps 652 mmHg 40%
    22:00 +23°C° 0 mm 2 mps 652 mmHg 44%
    23:00 +23°C° 0 mm 2 mps 652 mmHg 48%

    16 Diciembre, Sábado

    Tiempo Temperatura Precipitaciones Viento Presión Humedad
    00:00 +22°C° 0 mm 1 mps 652 mmHg 52%
    01:00 +21°C° 0 mm 1 mps 651 mmHg 56%
    02:00 +20°C° 0 mm 1 mps 651 mmHg 57%
    03:00 +20°C° 0 mm 1 mps 651 mmHg 59%
    04:00 +20°C° 0 mm 1 mps 651 mmHg 60%
    05:00 +21°C° 0 mm 1 mps 652 mmHg 56%
    06:00 +22°C° 0 mm 1 mps 652 mmHg 51%
    07:00 +23°C° 0 mm 1 mps 653 mmHg 47%
    08:00 +26°C° 0 mm 1 mps 654 mmHg 39%
    09:00 +29°C° 0 mm 1 mps 654 mmHg 31%
    10:00 +32°C° 0 mm 1 mps 655 mmHg 23%
    11:00 +33°C° 0 mm 1 mps 655 mmHg 22%
    12:00 +35°C° 0 mm 1 mps 654 mmHg 20%
    13:00 +36°C° 0 mm 1 mps 654 mmHg 19%
    14:00 +35°C° 0 mm 1 mps 653 mmHg 21%
    15:00 +35°C° 0 mm 2 mps 653 mmHg 24%
    16:00 +32°C° 0 mm 2 mps 652 mmHg 26%
    17:00 +31°C° 0 mm 2 mps 652 mmHg 29%
    18:00 +29°C° 0 mm 3 mps 652 mmHg 32%
    19:00 +27°C° 0 mm 3 mps 652 mmHg 35%
    20:00 +26°C° 0 mm 3 mps 653 mmHg 40%
    21:00 +25°C° 0 mm 2 mps 653 mmHg 45%
    22:00 +23°C° 0 mm 2 mps 653 mmHg 50%
    23:00 +23°C° 0 mm 2 mps 653 mmHg 54%
    Mostrar más